BCS5AE EKCH-EHAM

Flight info

Callsign BCS5AE
Flight time 1h 7m
Altitude 40000
Route LANGO M611 ALASA DCT WANZA N872 KUBAT T200 BLUFA
Aircraft A333/H-SDE3GHIJ2J3J5M1RVWXY/LB2D1

Departure

Time 2026-05-05 14:27
Airport Copenhagen Kastrup Airport (EKCH)

Arrival

Time 2026-05-05 15:34
Airport Amsterdam Airport Schiphol (EHAM)
Time Latitude Longitude Altitude Speed Heading
2026-05-05 14:11 55.61796 12.67159 28 ft 0 kts 79°
2026-05-05 14:15 55.61794 12.67140 28 ft 4 kts 79°
2026-05-05 14:15 55.61789 12.67094 28 ft 3 kts 79°
2026-05-05 14:16 55.61784 12.67057 28 ft 4 kts 66°
2026-05-05 14:16 55.61770 12.67021 28 ft 4 kts 26°
2026-05-05 14:16 55.61747 12.67015 28 ft 4 kts 349°
2026-05-05 14:16 55.61722 12.67024 28 ft 2 kts 349°
2026-05-05 14:17 55.61721 12.67024 28 ft 6 kts 349°
2026-05-05 14:20 55.61736 12.67019 28 ft 8 kts 349°
2026-05-05 14:20 55.61805 12.66995 28 ft 11 kts 349°
2026-05-05 14:20 55.61880 12.66948 28 ft 11 kts 318°
2026-05-05 14:21 55.61883 12.66820 28 ft 12 kts 259°
2026-05-05 14:21 55.61867 12.66667 28 ft 14 kts 259°
2026-05-05 14:21 55.61847 12.66489 28 ft 15 kts 256°
2026-05-05 14:21 55.61762 12.66398 28 ft 16 kts 200°
2026-05-05 14:22 55.61672 12.66288 28 ft 16 kts 232°
2026-05-05 14:22 55.61647 12.66096 29 ft 16 kts 275°
2026-05-05 14:22 55.61685 12.65902 30 ft 17 kts 298°
2026-05-05 14:22 55.61757 12.65700 29 ft 26 kts 303°
2026-05-05 14:23 55.61890 12.65346 28 ft 38 kts 303°
2026-05-05 14:23 55.61995 12.65056 26 ft 12 kts 303°
2026-05-05 14:23 55.61992 12.64941 27 ft 10 kts 233°
2026-05-05 14:23 55.61929 12.64855 27 ft 14 kts 214°
2026-05-05 14:24 55.61787 12.64690 28 ft 35 kts 213°
2026-05-05 14:24 55.61555 12.64424 28 ft 41 kts 213°
2026-05-05 14:24 55.61317 12.64151 27 ft 41 kts 213°
2026-05-05 14:24 55.61077 12.63875 27 ft 41 kts 213°
2026-05-05 14:25 55.60835 12.63598 27 ft 42 kts 213°
2026-05-05 14:25 55.60607 12.63314 27 ft 26 kts 220°
2026-05-05 14:25 55.60504 12.63155 28 ft 19 kts 221°
2026-05-05 14:25 55.60395 12.63178 28 ft 18 kts 135°
2026-05-05 14:26 55.60344 12.63324 30 ft 11 kts 90°
2026-05-05 14:26 55.60386 12.63417 29 ft 0 kts 43°
2026-05-05 14:26 55.60408 12.63453 28 ft 18 kts 42°
2026-05-05 14:27 55.60677 12.63870 30 ft 85 kts 41°
2026-05-05 14:27 55.61286 12.64813 30 ft 145 kts 40°
2026-05-05 14:27 55.62099 12.66061 670 ft 154 kts 38°
2026-05-05 14:27 55.62913 12.67287 1587 ft 158 kts 37°
2026-05-05 14:28 55.63845 12.68661 1957 ft 192 kts 38°
2026-05-05 14:28 55.64948 12.70341 2309 ft 225 kts 38°
2026-05-05 14:28 55.66112 12.72368 2951 ft 243 kts 50°
2026-05-05 14:28 55.66894 12.75085 3776 ft 255 kts 72°
2026-05-05 14:29 55.66849 12.78263 4692 ft 269 kts 105°
2026-05-05 14:29 55.65803 12.81028 5457 ft 276 kts 140°
2026-05-05 14:29 55.64051 12.82371 6244 ft 279 kts 176°
2026-05-05 14:29 55.62156 12.81964 7280 ft 273 kts 197°
2026-05-05 14:30 55.60393 12.80807 8365 ft 269 kts 210°
2026-05-05 14:30 55.58905 12.78861 9393 ft 265 kts 230°
2026-05-05 14:30 55.57814 12.76258 10378 ft 264 kts 239°
2026-05-05 14:30 55.56865 12.73474 11251 ft 266 kts 242°
2026-05-05 14:31 55.55923 12.70566 11822 ft 282 kts 242°
2026-05-05 14:31 55.55067 12.67888 12136 ft 300 kts 242°
2026-05-05 14:31 55.54015 12.64598 12676 ft 313 kts 242°
2026-05-05 14:31 55.52973 12.61344 13451 ft 318 kts 242°
2026-05-05 14:32 55.51877 12.57928 14256 ft 321 kts 242°
2026-05-05 14:32 55.50855 12.54746 14966 ft 324 kts 242°
2026-05-05 14:32 55.49737 12.51271 15725 ft 328 kts 242°
2026-05-05 14:32 55.48609 12.47769 16478 ft 331 kts 242°
2026-05-05 14:33 55.47465 12.44224 17248 ft 334 kts 242°
2026-05-05 14:33 55.46309 12.40644 17999 ft 338 kts 242°
2026-05-05 14:33 55.45144 12.37043 18660 ft 341 kts 242°
2026-05-05 14:33 55.43957 12.33378 19276 ft 345 kts 242°
2026-05-05 14:34 55.42760 12.29688 19901 ft 349 kts 242°
2026-05-05 14:34 55.41549 12.25962 20555 ft 351 kts 242°
2026-05-05 14:34 55.40332 12.22223 21204 ft 354 kts 242°
2026-05-05 14:34 55.39103 12.18451 21795 ft 357 kts 242°
2026-05-05 14:35 55.37861 12.14648 22377 ft 361 kts 242°
2026-05-05 14:35 55.36601 12.10794 22956 ft 365 kts 242°
2026-05-05 14:35 55.35331 12.06916 23533 ft 368 kts 242°
2026-05-05 14:35 55.34047 12.03002 24002 ft 371 kts 241°
2026-05-05 14:36 55.32750 11.99055 24471 ft 374 kts 241°
2026-05-05 14:36 55.31447 11.95095 24939 ft 377 kts 241°
2026-05-05 14:36 55.30127 11.91092 25409 ft 380 kts 241°
2026-05-05 14:36 55.28798 11.87068 25866 ft 382 kts 241°
2026-05-05 14:37 55.27478 11.83077 26313 ft 385 kts 241°
2026-05-05 14:37 55.26567 11.80328 26620 ft 387 kts 241°
2026-05-05 14:37 55.24772 11.74915 27216 ft 390 kts 241°
2026-05-05 14:37 55.23397 11.70779 27660 ft 393 kts 241°
2026-05-05 14:38 55.22015 11.66631 28043 ft 397 kts 241°
2026-05-05 14:38 55.20613 11.62424 28316 ft 403 kts 241°
2026-05-05 14:38 55.19195 11.58184 28867 ft 403 kts 241°
2026-05-05 14:38 55.18236 11.55319 29199 ft 404 kts 241°
2026-05-05 14:39 55.16830 11.51125 29613 ft 407 kts 241°
2026-05-05 14:39 55.15374 11.46787 30018 ft 410 kts 240°
2026-05-05 14:39 55.13923 11.42474 30358 ft 413 kts 240°
2026-05-05 14:39 55.12463 11.38140 30699 ft 415 kts 240°
2026-05-05 14:40 55.10992 11.33781 31049 ft 418 kts 240°
2026-05-05 14:40 55.09531 11.29462 31389 ft 420 kts 240°
2026-05-05 14:40 55.08040 11.25062 31730 ft 423 kts 240°
2026-05-05 14:40 55.06537 11.20633 32061 ft 425 kts 240°
2026-05-05 14:41 55.05024 11.16182 32451 ft 426 kts 240°
2026-05-05 14:41 55.03514 11.11749 32975 ft 424 kts 240°
2026-05-05 14:41 55.02005 11.07327 33445 ft 423 kts 240°
2026-05-05 14:41 55.00495 11.02910 33711 ft 426 kts 240°
2026-05-05 14:42 54.98973 10.98465 34021 ft 428 kts 240°
2026-05-05 14:42 54.97453 10.94035 34442 ft 426 kts 240°
2026-05-05 14:42 54.95939 10.89596 34876 ft 424 kts 241°
2026-05-05 14:42 54.94647 10.85013 35261 ft 422 kts 249°
2026-05-05 14:43 54.93710 10.80177 35603 ft 422 kts 253°
2026-05-05 14:43 54.92912 10.75271 35932 ft 422 kts 255°
2026-05-05 14:43 54.92174 10.70336 36257 ft 422 kts 255°
2026-05-05 14:43 54.91458 10.65397 36575 ft 422 kts 255°
2026-05-05 14:44 54.90743 10.60453 36899 ft 422 kts 255°
2026-05-05 14:44 54.90021 10.55530 37210 ft 421 kts 255°
2026-05-05 14:44 54.89286 10.50594 37526 ft 421 kts 255°
2026-05-05 14:44 54.88543 10.45673 37837 ft 421 kts 255°
2026-05-05 14:45 54.87794 10.40756 38146 ft 421 kts 255°
2026-05-05 14:45 54.87042 10.35857 38458 ft 420 kts 255°
2026-05-05 14:45 54.86287 10.30959 38721 ft 420 kts 255°
2026-05-05 14:45 54.85529 10.26055 38932 ft 420 kts 255°
2026-05-05 14:46 54.84769 10.21152 39126 ft 421 kts 255°
2026-05-05 14:46 54.84006 10.16245 39315 ft 422 kts 255°
2026-05-05 14:46 54.83241 10.11335 39497 ft 422 kts 255°
2026-05-05 14:46 54.82474 10.06424 39710 ft 422 kts 254°
2026-05-05 14:47 54.81698 10.01523 39882 ft 423 kts 253°
2026-05-05 14:47 54.80696 9.96710 39944 ft 426 kts 246°
2026-05-05 14:47 54.77845 9.87676 39941 ft 428 kts 239°
2026-05-05 14:48 54.74685 9.78921 39939 ft 429 kts 238°
2026-05-05 14:48 54.71465 9.70218 39939 ft 430 kts 238°
2026-05-05 14:49 54.68249 9.61496 39939 ft 430 kts 238°
2026-05-05 14:49 54.65041 9.52774 39937 ft 430 kts 238°
2026-05-05 14:50 54.61831 9.44056 39934 ft 430 kts 238°
2026-05-05 14:50 54.58612 9.35346 39933 ft 430 kts 238°
2026-05-05 14:51 54.55388 9.26655 39930 ft 430 kts 238°
2026-05-05 14:51 54.52157 9.17977 39931 ft 430 kts 238°
2026-05-05 14:52 54.48920 9.09313 39928 ft 431 kts 238°
2026-05-05 14:52 54.45671 9.00647 39930 ft 431 kts 238°
2026-05-05 14:53 54.42414 8.91990 39931 ft 431 kts 238°
2026-05-05 14:53 54.39152 8.83351 39931 ft 432 kts 238°
2026-05-05 14:54 54.35876 8.74705 39939 ft 432 kts 238°
2026-05-05 14:54 54.32584 8.66047 39938 ft 432 kts 237°
2026-05-05 14:55 54.29298 8.57434 39937 ft 432 kts 237°
2026-05-05 14:55 54.26005 8.48833 39945 ft 432 kts 237°
2026-05-05 14:56 54.22560 8.40412 39944 ft 433 kts 230°
2026-05-05 14:56 54.18362 8.33005 39942 ft 434 kts 225°
2026-05-05 14:57 54.13982 8.25887 39945 ft 435 kts 224°
2026-05-05 14:57 54.09570 8.18835 39944 ft 435 kts 224°
2026-05-05 14:58 54.05166 8.11775 39941 ft 435 kts 225°
2026-05-05 14:58 54.00770 8.04709 39941 ft 435 kts 225°
2026-05-05 14:59 53.96374 7.97654 39935 ft 435 kts 224°
2026-05-05 14:59 53.92008 7.90675 39942 ft 433 kts 224°
2026-05-05 15:00 53.88528 7.85129 39952 ft 433 kts 224°
2026-05-05 15:00 53.83320 7.76853 39941 ft 434 kts 224°
2026-05-05 15:01 53.78876 7.69815 39939 ft 435 kts 224°
2026-05-05 15:01 53.74453 7.62831 39924 ft 435 kts 224°
2026-05-05 15:02 53.70035 7.55875 39940 ft 433 kts 224°
2026-05-05 15:02 53.65626 7.48956 39935 ft 433 kts 224°
2026-05-05 15:03 53.61213 7.42050 39938 ft 433 kts 224°
2026-05-05 15:03 53.56801 7.35166 39935 ft 433 kts 224°
2026-05-05 15:04 53.52382 7.28293 39923 ft 433 kts 223°
2026-05-05 15:04 53.50180 7.24877 39608 ft 440 kts 223°
2026-05-05 15:04 53.47926 7.21382 39028 ft 443 kts 223°
2026-05-05 15:05 53.43384 7.14360 37514 ft 441 kts 223°
2026-05-05 15:05 53.41139 7.10898 36580 ft 436 kts 223°
2026-05-05 15:05 53.38928 7.07493 35890 ft 427 kts 223°
2026-05-05 15:06 53.36768 7.04172 35342 ft 415 kts 223°
2026-05-05 15:06 53.34672 7.00955 34815 ft 403 kts 223°
2026-05-05 15:06 53.32571 6.97931 34282 ft 395 kts 220°
2026-05-05 15:06 53.30435 6.95049 33725 ft 395 kts 220°
2026-05-05 15:07 53.28285 6.92182 33105 ft 395 kts 220°
2026-05-05 15:07 53.26144 6.89332 32536 ft 394 kts 220°
2026-05-05 15:07 53.24003 6.86482 31924 ft 393 kts 220°
2026-05-05 15:07 53.21872 6.83648 31483 ft 389 kts 220°
2026-05-05 15:08 53.19768 6.80853 31111 ft 384 kts 220°
2026-05-05 15:08 53.17685 6.78088 30699 ft 381 kts 220°
2026-05-05 15:08 53.15614 6.75341 30301 ft 381 kts 220°
2026-05-05 15:08 53.13543 6.72596 29878 ft 380 kts 220°
2026-05-05 15:09 53.11477 6.69862 29427 ft 379 kts 220°
2026-05-05 15:09 53.09415 6.67138 29000 ft 377 kts 220°
2026-05-05 15:09 53.07362 6.64427 28588 ft 376 kts 220°
2026-05-05 15:09 53.05321 6.61737 28171 ft 374 kts 219°
2026-05-05 15:10 53.03279 6.59049 27751 ft 374 kts 219°
2026-05-05 15:10 53.01241 6.56369 27348 ft 373 kts 219°
2026-05-05 15:10 52.99211 6.53702 26934 ft 371 kts 219°
2026-05-05 15:10 52.97188 6.51049 26509 ft 370 kts 219°
2026-05-05 15:11 52.95173 6.48409 26071 ft 369 kts 219°
2026-05-05 15:11 52.93165 6.45781 25642 ft 367 kts 219°
2026-05-05 15:11 52.91166 6.43168 25242 ft 365 kts 219°
2026-05-05 15:11 52.89174 6.40568 24839 ft 364 kts 219°
2026-05-05 15:12 52.87189 6.37980 24417 ft 363 kts 219°
2026-05-05 15:12 52.85212 6.35399 23985 ft 361 kts 220°
2026-05-05 15:12 52.83398 6.32550 23579 ft 359 kts 229°
2026-05-05 15:12 52.81880 6.29259 23139 ft 361 kts 234°
2026-05-05 15:13 52.80446 6.25856 22729 ft 361 kts 235°
2026-05-05 15:13 52.79027 6.22451 22296 ft 359 kts 235°
2026-05-05 15:13 52.77612 6.19064 21888 ft 357 kts 235°
2026-05-05 15:13 52.76203 6.15706 21465 ft 355 kts 235°
2026-05-05 15:14 52.74799 6.12372 21054 ft 353 kts 235°
2026-05-05 15:14 52.73398 6.09052 20635 ft 351 kts 235°
2026-05-05 15:14 52.72008 6.05766 20227 ft 349 kts 235°
2026-05-05 15:14 52.70622 6.02495 19824 ft 348 kts 235°
2026-05-05 15:15 52.69241 5.99239 19420 ft 345 kts 235°
2026-05-05 15:15 52.67869 5.96009 19020 ft 342 kts 235°
2026-05-05 15:15 52.66508 5.92810 18609 ft 340 kts 235°
2026-05-05 15:15 52.65154 5.89630 18207 ft 338 kts 235°
2026-05-05 15:16 52.63801 5.86459 17785 ft 338 kts 235°
2026-05-05 15:16 52.62456 5.83309 17361 ft 334 kts 235°
2026-05-05 15:16 52.61140 5.80231 16964 ft 333 kts 234°
2026-05-05 15:16 52.59801 5.77102 16575 ft 336 kts 234°
2026-05-05 15:17 52.58435 5.73915 16143 ft 337 kts 235°
2026-05-05 15:17 52.57091 5.70781 15722 ft 334 kts 235°
2026-05-05 15:17 52.55754 5.67670 15297 ft 332 kts 235°
2026-05-05 15:17 52.54423 5.64577 14894 ft 330 kts 235°
2026-05-05 15:18 52.53116 5.61542 14508 ft 330 kts 235°
2026-05-05 15:18 52.51795 5.58475 14090 ft 328 kts 236°
2026-05-05 15:18 52.50549 5.55347 13755 ft 330 kts 239°
2026-05-05 15:18 52.49332 5.52063 13580 ft 343 kts 240°
2026-05-05 15:19 52.48094 5.48686 13357 ft 346 kts 239°
2026-05-05 15:19 52.46854 5.45312 13137 ft 344 kts 239°
2026-05-05 15:19 52.45626 5.41974 12923 ft 340 kts 239°
2026-05-05 15:19 52.44404 5.38662 12709 ft 339 kts 239°
2026-05-05 15:20 52.43183 5.35354 12492 ft 339 kts 239°
2026-05-05 15:20 52.41962 5.32051 12279 ft 339 kts 239°
2026-05-05 15:20 52.40741 5.28756 12065 ft 337 kts 239°
2026-05-05 15:20 52.39525 5.25476 11848 ft 338 kts 239°
2026-05-05 15:21 52.38302 5.22180 11654 ft 339 kts 239°
2026-05-05 15:21 52.37076 5.18885 11423 ft 339 kts 239°
2026-05-05 15:21 52.36250 5.16667 11297 ft 338 kts 239°
2026-05-05 15:21 52.35030 5.13393 11069 ft 336 kts 239°
2026-05-05 15:22 52.33945 5.10023 10841 ft 335 kts 249°
2026-05-05 15:22 52.33460 5.06317 10656 ft 334 kts 265°
2026-05-05 15:22 52.33376 5.02530 10457 ft 330 kts 269°
2026-05-05 15:22 52.33365 4.98857 10299 ft 317 kts 270°
2026-05-05 15:23 52.33358 4.95325 10089 ft 305 kts 269°
2026-05-05 15:23 52.33344 4.91908 9927 ft 294 kts 270°
2026-05-05 15:23 52.33325 4.88642 9508 ft 292 kts 269°
2026-05-05 15:23 52.33302 4.85335 9127 ft 289 kts 269°
2026-05-05 15:24 52.33276 4.82009 8659 ft 289 kts 269°
2026-05-05 15:24 52.33249 4.78739 8253 ft 286 kts 269°
2026-05-05 15:24 52.33221 4.75495 7871 ft 284 kts 269°
2026-05-05 15:24 52.33192 4.72277 7450 ft 283 kts 269°
2026-05-05 15:25 52.33162 4.69110 7078 ft 281 kts 269°
2026-05-05 15:25 52.33131 4.65958 6868 ft 275 kts 269°
2026-05-05 15:25 52.33100 4.62838 6521 ft 274 kts 269°
2026-05-05 15:25 52.33068 4.59734 6251 ft 273 kts 269°
2026-05-05 15:26 52.33035 4.56587 6026 ft 273 kts 270°
2026-05-05 15:26 52.33001 4.53480 5786 ft 273 kts 269°
2026-05-05 15:26 52.32966 4.50383 5551 ft 273 kts 270°
2026-05-05 15:26 52.32932 4.47285 5331 ft 273 kts 270°
2026-05-05 15:27 52.32892 4.44220 5095 ft 273 kts 268°
2026-05-05 15:27 52.32541 4.41172 4866 ft 275 kts 249°
2026-05-05 15:27 52.31460 4.38673 4705 ft 267 kts 220°
2026-05-05 15:27 52.29854 4.37296 4461 ft 259 kts 193°
2026-05-05 15:28 52.28099 4.36871 4256 ft 252 kts 183°
2026-05-05 15:28 52.26366 4.36673 4044 ft 247 kts 181°
2026-05-05 15:28 52.24683 4.36905 3778 ft 241 kts 160°
2026-05-05 15:28 52.23308 4.38335 3460 ft 234 kts 127°
2026-05-05 15:29 52.22469 4.40553 3186 ft 229 kts 112°
2026-05-05 15:29 52.21803 4.42881 2979 ft 223 kts 111°
2026-05-05 15:29 52.21192 4.45152 2894 ft 212 kts 105°
2026-05-05 15:29 52.20887 4.47398 2886 ft 197 kts 91°
2026-05-05 15:30 52.20815 4.49616 2889 ft 195 kts 89°
2026-05-05 15:30 52.20873 4.51826 2858 ft 195 kts 77°
2026-05-05 15:30 52.21298 4.53895 2816 ft 192 kts 61°
2026-05-05 15:30 52.21970 4.55757 2633 ft 191 kts 56°
2026-05-05 15:31 52.22695 4.57580 2379 ft 192 kts 56°
2026-05-05 15:31 52.23386 4.59387 2107 ft 181 kts 56°
2026-05-05 15:31 52.24029 4.61061 1839 ft 168 kts 56°
2026-05-05 15:31 52.24630 4.62620 1607 ft 155 kts 56°
2026-05-05 15:32 52.25174 4.64029 1401 ft 139 kts 56°
2026-05-05 15:32 52.25664 4.65307 1190 ft 126 kts 55°
2026-05-05 15:32 52.26109 4.66475 1065 ft 120 kts 54°
2026-05-05 15:32 52.26553 4.67625 907 ft 120 kts 54°
2026-05-05 15:33 52.27004 4.68771 739 ft 120 kts 53°
2026-05-05 15:33 52.27453 4.69919 585 ft 120 kts 53°
2026-05-05 15:33 52.27888 4.71085 401 ft 121 kts 52°
2026-05-05 15:33 52.28335 4.72243 241 ft 119 kts 53°
2026-05-05 15:34 52.28774 4.73379 92 ft 118 kts 52°
2026-05-05 15:34 52.29208 4.74509 6 ft 108 kts 58°
2026-05-05 15:34 52.29473 4.75193 1 ft 32 kts 57°
2026-05-05 15:34 52.29545 4.75393 1 ft 9 kts 84°
2026-05-05 15:35 52.29509 4.75475 1 ft 10 kts 143°
2026-05-05 15:35 52.29451 4.75544 2 ft 11 kts 138°
2026-05-05 15:35 52.29451 4.75654 3 ft 11 kts 63°
2026-05-05 15:35 52.29488 4.75776 3 ft 13 kts 68°
2026-05-05 15:36 52.29520 4.75923 3 ft 15 kts 66°
2026-05-05 15:36 52.29575 4.76076 3 ft 16 kts 58°
2026-05-05 15:36 52.29581 4.76116 3 ft 4 kts 95°
2026-05-05 15:36 52.29562 4.76155 3 ft 5 kts 137°
2026-05-05 15:37 52.29525 4.76200 3 ft 6 kts 146°
2026-05-05 15:37 52.29518 4.76207 3 ft 0 kts 147°